Year,Month,Day,Hour,Minute,Value (Times are PST for temperature in C)
2018,07,25,00,00,18.50
2018,07,25,00,01,18.50
2018,07,25,00,02,18.50
2018,07,25,00,03,18.40
2018,07,25,00,04,18.40
2018,07,25,00,05,18.40
2018,07,25,00,06,18.40
2018,07,25,00,07,18.40
2018,07,25,00,08,18.40
2018,07,25,00,09,18.50
2018,07,25,00,10,18.50
2018,07,25,00,11,18.40
2018,07,25,00,12,18.40
2018,07,25,00,13,18.40
2018,07,25,00,14,18.40
2018,07,25,00,15,18.30
2018,07,25,00,16,18.30
2018,07,25,00,17,18.30
2018,07,25,00,18,18.30
2018,07,25,00,19,18.30
2018,07,25,00,20,18.30
2018,07,25,00,21,18.30
2018,07,25,00,22,18.30
2018,07,25,00,23,18.20
2018,07,25,00,24,18.20
2018,07,25,00,25,18.10
2018,07,25,00,26,18.10
2018,07,25,00,27,18.00
2018,07,25,00,28,17.90
2018,07,25,00,29,17.90
2018,07,25,00,30,17.90
2018,07,25,00,31,17.90
2018,07,25,00,32,17.80
2018,07,25,00,33,17.80
2018,07,25,00,34,17.80
2018,07,25,00,35,17.80
2018,07,25,00,36,17.80
2018,07,25,00,37,17.80
2018,07,25,00,38,17.80
2018,07,25,00,39,17.70
2018,07,25,00,40,17.70
2018,07,25,00,41,17.70
2018,07,25,00,42,17.70
2018,07,25,00,43,17.70
2018,07,25,00,44,17.70
2018,07,25,00,45,17.70
2018,07,25,00,46,17.70
2018,07,25,00,47,17.70
2018,07,25,00,48,17.70
2018,07,25,00,49,17.70
2018,07,25,00,50,17.70
2018,07,25,00,51,17.70
2018,07,25,00,52,17.70
2018,07,25,00,53,17.70
2018,07,25,00,54,17.70
2018,07,25,00,55,17.70
2018,07,25,00,56,17.70
2018,07,25,00,57,17.80
2018,07,25,00,58,17.80
2018,07,25,00,59,17.80
2018,07,25,01,00,17.80
2018,07,25,01,01,17.80
2018,07,25,01,02,17.80
2018,07,25,01,03,17.80
2018,07,25,01,04,17.80
2018,07,25,01,05,17.80
2018,07,25,01,06,17.80
2018,07,25,01,07,17.80
2018,07,25,01,08,17.80
2018,07,25,01,09,17.80
2018,07,25,01,10,17.70
2018,07,25,01,11,17.70
2018,07,25,01,12,17.70
2018,07,25,01,13,17.70
2018,07,25,01,14,17.70
2018,07,25,01,15,17.70
2018,07,25,01,16,17.80
2018,07,25,01,17,17.80
2018,07,25,01,18,17.80
2018,07,25,01,19,17.80
2018,07,25,01,20,17.80
2018,07,25,01,21,17.80
2018,07,25,01,22,17.80
2018,07,25,01,23,17.80
2018,07,25,01,24,17.80
2018,07,25,01,25,17.80
2018,07,25,01,26,17.80
2018,07,25,01,27,17.80
2018,07,25,01,28,17.80
2018,07,25,01,29,17.80
2018,07,25,01,30,17.80
2018,07,25,01,31,17.80
2018,07,25,01,32,17.80
2018,07,25,01,33,17.80
2018,07,25,01,34,17.80
2018,07,25,01,35,17.80
2018,07,25,01,36,17.80
2018,07,25,01,37,17.80
2018,07,25,01,38,17.80
2018,07,25,01,39,17.80
2018,07,25,01,40,17.80
2018,07,25,01,41,17.80
2018,07,25,01,42,17.80
2018,07,25,01,43,17.80
2018,07,25,01,44,17.80
2018,07,25,01,45,17.70
2018,07,25,01,46,17.70
2018,07,25,01,47,17.70
2018,07,25,01,48,17.70
2018,07,25,01,49,17.70
2018,07,25,01,50,17.70
2018,07,25,01,51,17.70
2018,07,25,01,52,17.70
2018,07,25,01,53,17.70
2018,07,25,01,54,17.70
2018,07,25,01,55,17.70
2018,07,25,01,56,17.70
2018,07,25,01,57,17.70
2018,07,25,01,58,17.70
2018,07,25,01,59,17.70
2018,07,25,02,00,17.60
2018,07,25,02,01,17.60
2018,07,25,02,02,17.60
2018,07,25,02,03,17.60
2018,07,25,02,04,17.60
2018,07,25,02,05,17.60
2018,07,25,02,06,17.60
2018,07,25,02,07,17.60
2018,07,25,02,08,17.60
2018,07,25,02,09,17.70
2018,07,25,02,10,17.70
2018,07,25,02,11,17.60
2018,07,25,02,12,17.60
2018,07,25,02,13,17.60
2018,07,25,02,14,17.70
2018,07,25,02,15,17.60
2018,07,25,02,16,17.70
2018,07,25,02,17,17.70
2018,07,25,02,18,17.70
2018,07,25,02,19,17.70
2018,07,25,02,20,17.70
2018,07,25,02,21,17.70
2018,07,25,02,22,17.70
2018,07,25,02,23,17.70
2018,07,25,02,24,17.70
2018,07,25,02,25,17.60
2018,07,25,02,26,17.60
2018,07,25,02,27,17.60
2018,07,25,02,28,17.60
2018,07,25,02,29,17.50
2018,07,25,02,30,17.50
2018,07,25,02,31,17.50
2018,07,25,02,32,17.50
2018,07,25,02,33,17.50
2018,07,25,02,34,17.50
2018,07,25,02,35,17.50
2018,07,25,02,36,17.50
2018,07,25,02,37,17.50
2018,07,25,02,38,17.50
2018,07,25,02,39,17.50
2018,07,25,02,40,17.50
2018,07,25,02,41,17.50
2018,07,25,02,42,17.40
2018,07,25,02,43,17.40
2018,07,25,02,44,17.40
2018,07,25,02,45,17.40
2018,07,25,02,46,17.40
2018,07,25,02,47,17.40
2018,07,25,02,48,17.40
2018,07,25,02,49,17.40
2018,07,25,02,50,17.40
2018,07,25,02,51,17.40
2018,07,25,02,52,17.40
2018,07,25,02,53,17.40
2018,07,25,02,54,17.40
2018,07,25,02,55,17.40
2018,07,25,02,56,17.40
2018,07,25,02,57,17.40
2018,07,25,02,58,17.40
2018,07,25,02,59,17.40
2018,07,25,03,00,17.40
2018,07,25,03,01,17.40
2018,07,25,03,02,17.40
2018,07,25,03,03,17.30
2018,07,25,03,04,17.30
2018,07,25,03,05,17.30
2018,07,25,03,06,17.30
2018,07,25,03,07,17.30
2018,07,25,03,08,17.30
2018,07,25,03,09,17.20
2018,07,25,03,10,17.20
2018,07,25,03,11,17.20
2018,07,25,03,12,17.20
2018,07,25,03,13,17.20
2018,07,25,03,14,17.20
2018,07,25,03,15,17.20
2018,07,25,03,16,17.20
2018,07,25,03,17,17.20
2018,07,25,03,18,17.20
2018,07,25,03,19,17.20
2018,07,25,03,20,17.20
2018,07,25,03,21,17.10
2018,07,25,03,22,17.10
2018,07,25,03,23,17.10
2018,07,25,03,24,17.10
2018,07,25,03,25,17.00
2018,07,25,03,26,17.00
2018,07,25,03,27,16.90
2018,07,25,03,28,16.90
2018,07,25,03,29,16.90
2018,07,25,03,30,16.80
2018,07,25,03,31,16.80
2018,07,25,03,32,16.80
2018,07,25,03,33,16.80
2018,07,25,03,34,16.80
2018,07,25,03,35,16.70
2018,07,25,03,36,16.70
2018,07,25,03,37,16.60
2018,07,25,03,38,16.60
2018,07,25,03,39,16.60
2018,07,25,03,40,16.50
2018,07,25,03,41,16.50
2018,07,25,03,42,16.40
2018,07,25,03,43,16.40
2018,07,25,03,44,16.30
2018,07,25,03,45,16.30
2018,07,25,03,46,16.30
2018,07,25,03,47,16.20
2018,07,25,03,48,16.20
2018,07,25,03,49,16.10
2018,07,25,03,50,16.10
2018,07,25,03,51,16.10
2018,07,25,03,52,16.00
2018,07,25,03,53,16.00
2018,07,25,03,54,16.00
2018,07,25,03,55,15.90
2018,07,25,03,56,15.90
2018,07,25,03,57,15.90
2018,07,25,03,58,15.90
2018,07,25,03,59,15.90
2018,07,25,04,00,15.90
2018,07,25,04,01,15.90
2018,07,25,04,02,15.90
2018,07,25,04,03,15.80
2018,07,25,04,04,15.80
2018,07,25,04,08,15.80
2018,07,25,04,09,15.80
2018,07,25,04,10,15.80
2018,07,25,04,11,15.80
2018,07,25,04,12,15.80
2018,07,25,04,13,15.80
2018,07,25,04,14,15.80
2018,07,25,04,15,15.80
2018,07,25,04,16,15.80
2018,07,25,04,17,15.80
2018,07,25,04,18,15.80
2018,07,25,04,19,15.80
2018,07,25,04,20,15.80
2018,07,25,04,21,15.80
2018,07,25,04,22,15.80
2018,07,25,04,23,15.80
2018,07,25,04,24,15.80
2018,07,25,04,25,15.80
2018,07,25,04,26,15.80
2018,07,25,04,27,15.80
2018,07,25,04,28,15.80
2018,07,25,04,29,15.80
2018,07,25,04,30,15.80
2018,07,25,04,31,15.80
2018,07,25,04,32,15.80
2018,07,25,04,33,15.80
2018,07,25,04,34,15.70
2018,07,25,04,35,15.70
2018,07,25,04,36,15.70
2018,07,25,04,37,15.60
2018,07,25,04,38,15.60
2018,07,25,04,39,15.60
2018,07,25,04,40,15.60
2018,07,25,04,41,15.60
2018,07,25,04,42,15.60
2018,07,25,04,43,15.60
2018,07,25,04,44,15.60
2018,07,25,04,45,15.50
2018,07,25,04,46,15.50
2018,07,25,04,47,15.50
2018,07,25,04,48,15.50
2018,07,25,04,49,15.50
2018,07,25,04,50,15.50
2018,07,25,04,51,15.50
2018,07,25,04,52,15.50
2018,07,25,04,53,15.60
2018,07,25,04,54,15.60
2018,07,25,04,55,15.60
2018,07,25,04,56,15.60
2018,07,25,04,57,15.60
2018,07,25,04,58,15.60
2018,07,25,04,59,15.60
2018,07,25,05,00,15.60
2018,07,25,05,01,15.60
2018,07,25,05,02,15.50
2018,07,25,05,03,15.50
2018,07,25,05,04,15.50
2018,07,25,05,05,15.50
2018,07,25,05,06,15.40
2018,07,25,05,07,15.40
2018,07,25,05,08,15.40
2018,07,25,05,09,15.30
2018,07,25,05,10,15.30
2018,07,25,05,11,15.30
2018,07,25,05,12,15.30
2018,07,25,05,13,15.30
2018,07,25,05,14,15.30
2018,07,25,05,15,15.20
2018,07,25,05,16,15.20
2018,07,25,05,17,15.20
2018,07,25,05,18,15.20
2018,07,25,05,19,15.20
2018,07,25,05,20,15.20
2018,07,25,05,21,15.20
2018,07,25,05,22,15.20
2018,07,25,05,23,15.20
2018,07,25,05,24,15.20
2018,07,25,05,25,15.20
2018,07,25,05,26,15.20
2018,07,25,05,27,15.20
2018,07,25,05,28,15.20
2018,07,25,05,29,15.20
2018,07,25,05,30,15.20
2018,07,25,05,31,15.20
2018,07,25,05,32,15.20
2018,07,25,05,33,15.20
2018,07,25,05,34,15.20
2018,07,25,05,35,15.20
2018,07,25,05,36,15.20
2018,07,25,05,37,15.20
2018,07,25,05,38,15.20
2018,07,25,05,39,15.20
2018,07,25,05,40,15.30
2018,07,25,05,41,15.30
2018,07,25,05,42,15.30
2018,07,25,05,43,15.30
2018,07,25,05,44,15.30
2018,07,25,05,45,15.30
2018,07,25,05,46,15.30
2018,07,25,05,47,15.30
2018,07,25,05,48,15.30
2018,07,25,05,49,15.30
2018,07,25,05,50,15.30
2018,07,25,05,51,15.30
2018,07,25,05,52,15.30
2018,07,25,05,53,15.30
2018,07,25,05,54,15.30
2018,07,25,05,55,15.30
2018,07,25,05,56,15.30
2018,07,25,05,57,15.30
2018,07,25,05,58,15.30
2018,07,25,05,59,15.30
2018,07,25,06,00,15.30
2018,07,25,06,01,15.30
2018,07,25,06,02,15.30
2018,07,25,06,03,15.30
2018,07,25,06,04,15.30
2018,07,25,06,05,15.30
2018,07,25,06,06,15.30
2018,07,25,06,07,15.30
2018,07,25,06,08,15.30
2018,07,25,06,09,15.30
2018,07,25,06,10,15.30
2018,07,25,06,11,15.30
2018,07,25,06,12,15.30
2018,07,25,06,13,15.30
2018,07,25,06,14,15.30
2018,07,25,06,15,15.30
2018,07,25,06,16,15.30
2018,07,25,06,17,15.30
2018,07,25,06,18,15.30
2018,07,25,06,19,15.30
2018,07,25,06,20,15.30
2018,07,25,06,21,15.40
2018,07,25,06,22,15.40
2018,07,25,06,23,15.40
2018,07,25,06,24,15.40
2018,07,25,06,25,15.50
2018,07,25,06,26,15.50
2018,07,25,06,27,15.50
2018,07,25,06,28,15.60
2018,07,25,06,29,15.60
2018,07,25,06,30,15.60
2018,07,25,06,31,15.60
2018,07,25,06,32,15.60
2018,07,25,06,33,15.70
2018,07,25,06,34,15.70
2018,07,25,06,35,15.70
2018,07,25,06,36,15.70
2018,07,25,06,37,15.70
2018,07,25,06,38,15.70
2018,07,25,06,39,15.80
2018,07,25,06,40,15.80
2018,07,25,06,41,15.80
2018,07,25,06,42,15.90
2018,07,25,06,43,15.90
2018,07,25,06,44,16.00
2018,07,25,06,45,16.00
2018,07,25,06,46,16.10
2018,07,25,06,47,16.20
2018,07,25,06,48,16.20
2018,07,25,06,49,16.30
2018,07,25,06,50,16.30
2018,07,25,06,51,16.40
2018,07,25,06,52,16.50
2018,07,25,06,53,16.50
2018,07,25,06,54,16.60
2018,07,25,06,55,16.70
2018,07,25,06,56,16.70
2018,07,25,06,57,16.80
2018,07,25,06,58,16.80
2018,07,25,06,59,16.80
2018,07,25,07,00,16.90
2018,07,25,07,01,16.90
2018,07,25,07,02,17.00
2018,07,25,07,03,17.00
2018,07,25,07,04,17.10
2018,07,25,07,05,17.10
2018,07,25,07,06,17.20
2018,07,25,07,07,17.20
2018,07,25,07,08,17.30
2018,07,25,07,09,17.40
2018,07,25,07,10,17.50
2018,07,25,07,11,17.60
2018,07,25,07,12,17.70
2018,07,25,07,13,17.80
2018,07,25,07,14,17.80
2018,07,25,07,15,17.90
2018,07,25,07,16,18.00
2018,07,25,07,17,18.10
2018,07,25,07,18,18.20
2018,07,25,07,19,18.20
2018,07,25,07,20,18.30
2018,07,25,07,21,18.40
2018,07,25,07,22,18.50
2018,07,25,07,23,18.60
2018,07,25,07,24,18.70
2018,07,25,07,25,18.80
2018,07,25,07,26,18.80
2018,07,25,07,27,18.90
2018,07,25,07,28,19.10
2018,07,25,07,29,19.20
2018,07,25,07,30,19.30
2018,07,25,07,31,19.40
2018,07,25,07,32,19.40
2018,07,25,07,33,19.50
2018,07,25,07,34,19.50
2018,07,25,07,35,19.60
2018,07,25,07,36,19.70
2018,07,25,07,37,19.70
2018,07,25,07,38,19.80
2018,07,25,07,39,19.80
2018,07,25,07,40,19.90
2018,07,25,07,41,20.00
2018,07,25,07,42,20.10
2018,07,25,07,43,20.20
2018,07,25,07,44,20.20
2018,07,25,07,45,20.30
2018,07,25,07,46,20.40
2018,07,25,07,47,20.50
2018,07,25,07,48,20.50
2018,07,25,07,49,20.60
2018,07,25,07,50,20.60
2018,07,25,07,51,20.60
2018,07,25,07,52,20.70
2018,07,25,07,53,20.70
2018,07,25,07,54,20.80
2018,07,25,07,55,20.80
2018,07,25,07,56,20.70
2018,07,25,07,57,20.70
2018,07,25,07,58,20.60
2018,07,25,07,59,20.50
2018,07,25,08,00,20.50
2018,07,25,08,01,20.50
2018,07,25,08,02,20.50
2018,07,25,08,03,20.50
2018,07,25,08,04,20.50
2018,07,25,08,05,20.60
2018,07,25,08,06,20.60
2018,07,25,08,07,20.70
2018,07,25,08,08,20.70
2018,07,25,08,09,20.80
2018,07,25,08,10,20.80
2018,07,25,08,11,20.80
2018,07,25,08,12,20.80
2018,07,25,08,13,20.90
2018,07,25,08,14,20.90
2018,07,25,08,15,21.00
2018,07,25,08,16,21.00
2018,07,25,08,17,21.10
2018,07,25,08,18,21.10
2018,07,25,08,19,21.10
2018,07,25,08,20,21.10
2018,07,25,08,21,21.10
2018,07,25,08,22,21.10
2018,07,25,08,23,21.10
2018,07,25,08,24,21.20
2018,07,25,08,25,21.20
2018,07,25,08,26,21.30
2018,07,25,08,27,21.30
2018,07,25,08,28,21.30
2018,07,25,08,29,21.30
2018,07,25,08,30,21.40
2018,07,25,08,31,21.40
2018,07,25,08,32,21.40
2018,07,25,08,33,21.40
2018,07,25,08,34,21.40
2018,07,25,08,35,21.40
2018,07,25,08,36,21.40
2018,07,25,08,37,21.40
2018,07,25,08,38,21.40
2018,07,25,08,39,21.40
2018,07,25,08,40,21.40
2018,07,25,08,41,21.40
2018,07,25,08,42,21.40
2018,07,25,08,43,21.40
2018,07,25,08,44,21.50
2018,07,25,08,45,21.50
2018,07,25,08,46,21.50
2018,07,25,08,47,21.60
2018,07,25,08,48,21.60
2018,07,25,08,49,21.60
2018,07,25,08,50,21.60
2018,07,25,08,51,21.70
2018,07,25,08,52,21.70
2018,07,25,08,53,21.80
2018,07,25,08,54,21.80
2018,07,25,08,55,21.90
2018,07,25,08,56,22.00
2018,07,25,08,57,22.10
2018,07,25,08,58,22.20
2018,07,25,08,59,22.30
2018,07,25,09,00,22.40
2018,07,25,09,01,22.50
2018,07,25,09,02,22.60
2018,07,25,09,03,22.70
2018,07,25,09,04,22.70
2018,07,25,09,05,22.80
2018,07,25,09,06,22.80
2018,07,25,09,07,22.90
2018,07,25,09,08,23.00
2018,07,25,09,09,23.10
2018,07,25,09,10,23.20
2018,07,25,09,11,23.30
2018,07,25,09,12,23.40
2018,07,25,09,13,23.50
2018,07,25,09,14,23.60
2018,07,25,09,15,23.70
2018,07,25,09,16,23.80
2018,07,25,09,17,24.00
2018,07,25,09,18,24.00
2018,07,25,09,19,24.10
2018,07,25,09,20,24.20
2018,07,25,09,21,24.20
2018,07,25,09,22,24.30
2018,07,25,09,23,24.40
2018,07,25,09,24,24.40
2018,07,25,09,25,24.40
2018,07,25,09,26,24.40
2018,07,25,09,27,24.40
2018,07,25,09,28,24.50
2018,07,25,09,29,24.50
2018,07,25,09,30,24.50
2018,07,25,09,31,24.50
2018,07,25,09,32,24.50
2018,07,25,09,33,24.50
2018,07,25,09,34,24.50
2018,07,25,09,35,24.50
2018,07,25,09,36,24.50
2018,07,25,09,37,24.50
2018,07,25,09,38,24.50
2018,07,25,09,39,24.60
2018,07,25,09,40,24.60
2018,07,25,09,41,24.60
2018,07,25,09,42,24.60
2018,07,25,09,43,24.60
2018,07,25,09,44,24.60
2018,07,25,09,45,24.60
2018,07,25,09,46,24.60
2018,07,25,09,47,24.60
2018,07,25,09,48,24.70
2018,07,25,09,49,24.70
2018,07,25,09,50,24.80
2018,07,25,09,51,24.80
2018,07,25,09,52,24.90
2018,07,25,09,53,25.00
2018,07,25,09,54,25.10
2018,07,25,09,55,25.10
2018,07,25,09,56,25.20
2018,07,25,09,57,25.20
2018,07,25,09,58,25.20
2018,07,25,09,59,25.20
2018,07,25,10,00,25.20
2018,07,25,10,01,25.20
2018,07,25,10,02,25.30
2018,07,25,10,03,25.30
2018,07,25,10,04,25.30
2018,07,25,10,05,25.30
2018,07,25,10,06,25.30
2018,07,25,10,07,25.30
2018,07,25,10,08,25.30
2018,07,25,10,09,25.30
2018,07,25,10,10,25.40
2018,07,25,10,11,25.40
2018,07,25,10,12,25.30
2018,07,25,10,13,25.30
2018,07,25,10,14,25.20
2018,07,25,10,15,25.20
2018,07,25,10,16,25.20
2018,07,25,10,17,25.10
2018,07,25,10,18,25.10
2018,07,25,10,19,25.20
2018,07,25,10,20,25.20
2018,07,25,10,21,25.20
2018,07,25,10,22,25.10
2018,07,25,10,23,25.10
2018,07,25,10,24,25.10
2018,07,25,10,25,25.00
2018,07,25,10,26,25.00
2018,07,25,10,27,25.00
2018,07,25,10,28,25.10
2018,07,25,10,29,25.10
2018,07,25,10,30,25.20
2018,07,25,10,31,25.20
2018,07,25,10,32,25.20
2018,07,25,10,33,25.20
2018,07,25,10,34,25.20
2018,07,25,10,35,25.20
2018,07,25,10,36,25.20
2018,07,25,10,37,25.20
2018,07,25,10,38,25.30
2018,07,25,10,39,25.30
2018,07,25,10,40,25.30
2018,07,25,10,41,25.40
2018,07,25,10,42,25.40
2018,07,25,10,43,25.50
2018,07,25,10,44,25.50
2018,07,25,10,45,25.50
2018,07,25,10,46,25.50
2018,07,25,10,47,25.50
2018,07,25,10,48,25.50
2018,07,25,10,49,25.50
2018,07,25,10,50,25.40
2018,07,25,10,51,25.40
2018,07,25,10,52,25.40
2018,07,25,10,53,25.40
2018,07,25,10,54,25.30
2018,07,25,10,55,25.30
2018,07,25,10,56,25.30
2018,07,25,10,57,25.30
2018,07,25,10,58,25.30
2018,07,25,10,59,25.30
2018,07,25,11,00,25.30
2018,07,25,11,01,25.30
2018,07,25,11,02,25.30
2018,07,25,11,03,25.30
2018,07,25,11,04,25.30
2018,07,25,11,05,25.20
2018,07,25,11,06,25.20
2018,07,25,11,07,25.10
2018,07,25,11,08,25.10
2018,07,25,11,09,25.10
2018,07,25,11,10,25.10
2018,07,25,11,11,25.10
2018,07,25,11,12,25.10
2018,07,25,11,13,25.20
2018,07,25,11,14,25.30
2018,07,25,11,15,25.30
2018,07,25,11,16,25.30
2018,07,25,11,17,25.30
2018,07,25,11,18,25.30
2018,07,25,11,19,25.30
2018,07,25,11,20,25.30
2018,07,25,11,21,25.30
2018,07,25,11,22,25.40
2018,07,25,11,23,25.40
2018,07,25,11,24,25.40
2018,07,25,11,25,25.40
2018,07,25,11,26,25.40
2018,07,25,11,27,25.40
2018,07,25,11,28,25.30
2018,07,25,11,29,25.30
2018,07,25,11,30,25.40
2018,07,25,11,31,25.40
2018,07,25,11,32,25.40
2018,07,25,11,33,25.40
2018,07,25,11,34,25.50
2018,07,25,11,35,25.50
2018,07,25,11,36,25.60
2018,07,25,11,37,25.60
2018,07,25,11,38,25.70
2018,07,25,11,39,25.80
2018,07,25,11,40,25.80
2018,07,25,11,41,25.80
2018,07,25,11,42,25.70
2018,07,25,11,43,25.70
2018,07,25,11,44,25.70
2018,07,25,11,45,25.70
2018,07,25,11,46,25.60
2018,07,25,11,47,25.60
2018,07,25,11,48,25.50
2018,07,25,11,49,25.50
2018,07,25,11,50,25.40
2018,07,25,11,51,25.40
2018,07,25,11,52,25.40
2018,07,25,11,53,25.50
2018,07,25,11,54,25.50
2018,07,25,11,55,25.60
2018,07,25,11,56,25.60
2018,07,25,11,57,25.60
2018,07,25,11,58,25.70
2018,07,25,11,59,25.70
2018,07,25,12,00,25.80
2018,07,25,12,01,25.80
2018,07,25,12,02,25.80
2018,07,25,12,03,25.80
2018,07,25,12,04,25.80
2018,07,25,12,05,25.80
2018,07,25,12,06,25.70
2018,07,25,12,07,25.70
2018,07,25,12,08,25.80
2018,07,25,12,09,25.80
2018,07,25,12,10,25.80
2018,07,25,12,11,25.90
2018,07,25,12,12,25.90
2018,07,25,12,13,25.90
2018,07,25,12,14,26.00
2018,07,25,12,15,26.00
2018,07,25,12,16,26.10
2018,07,25,12,17,26.10
2018,07,25,12,18,26.10
2018,07,25,12,19,26.20
2018,07,25,12,20,26.20
2018,07,25,12,21,26.20
2018,07,25,12,22,26.10
2018,07,25,12,23,26.00
2018,07,25,12,24,25.90
2018,07,25,12,25,25.80
2018,07,25,12,26,25.80
2018,07,25,12,27,25.80
2018,07,25,12,28,25.80
2018,07,25,12,29,25.80
2018,07,25,12,30,25.80
2018,07,25,12,31,25.80
2018,07,25,12,32,25.90
2018,07,25,12,33,25.90
2018,07,25,12,34,26.00
2018,07,25,12,35,26.10
2018,07,25,12,36,26.10
2018,07,25,12,37,26.00
2018,07,25,12,38,26.00
2018,07,25,12,39,25.90
2018,07,25,12,40,25.80
2018,07,25,12,41,25.80
2018,07,25,12,42,25.70
2018,07,25,12,43,25.80
2018,07,25,12,44,25.80
2018,07,25,12,45,25.80
2018,07,25,12,46,25.80
2018,07,25,12,47,25.70
2018,07,25,12,48,25.70
2018,07,25,12,49,25.70
2018,07,25,12,50,25.70
2018,07,25,12,51,25.60
2018,07,25,12,52,25.50
2018,07,25,12,53,25.50
2018,07,25,12,54,25.40
2018,07,25,12,55,25.40
2018,07,25,12,56,25.40
2018,07,25,12,57,25.30
2018,07,25,12,58,25.30
2018,07,25,12,59,25.30
2018,07,25,13,00,25.30
2018,07,25,13,01,25.40
2018,07,25,13,02,25.50
2018,07,25,13,03,25.60
2018,07,25,13,04,25.80
2018,07,25,13,05,26.00
2018,07,25,13,06,26.20
2018,07,25,13,07,26.30
2018,07,25,13,08,26.50
2018,07,25,13,09,26.70
2018,07,25,13,10,26.80
2018,07,25,13,11,26.80
2018,07,25,13,12,26.80
2018,07,25,13,13,26.80
2018,07,25,13,14,26.80
2018,07,25,13,15,26.90
2018,07,25,13,16,27.00
2018,07,25,13,17,27.10
2018,07,25,13,18,27.20
2018,07,25,13,19,27.40
2018,07,25,13,20,27.50
2018,07,25,13,21,27.60
2018,07,25,13,22,27.60
2018,07,25,13,23,27.60
2018,07,25,13,24,27.50
2018,07,25,13,25,27.40
2018,07,25,13,26,27.40
2018,07,25,13,27,27.40
2018,07,25,13,28,27.40
2018,07,25,13,29,27.30
2018,07,25,13,30,27.30
2018,07,25,13,31,27.20
2018,07,25,13,32,27.10
2018,07,25,13,33,27.00
2018,07,25,13,34,26.90
2018,07,25,13,35,26.80
2018,07,25,13,36,26.80
2018,07,25,13,37,26.80
2018,07,25,13,38,26.70
2018,07,25,13,39,26.60
2018,07,25,13,40,26.50
2018,07,25,13,41,26.50
2018,07,25,13,42,26.50
2018,07,25,13,43,26.50
2018,07,25,13,44,26.60
2018,07,25,13,45,26.50
2018,07,25,13,46,26.50
2018,07,25,13,47,26.40
2018,07,25,13,48,26.30
2018,07,25,13,49,26.30
2018,07,25,13,50,26.20
2018,07,25,13,51,26.10
2018,07,25,13,52,26.10
2018,07,25,13,53,26.10
2018,07,25,13,54,26.10
2018,07,25,13,55,26.10
2018,07,25,13,56,26.10
2018,07,25,13,57,26.00
2018,07,25,13,58,26.00
2018,07,25,13,59,25.90
2018,07,25,14,00,25.90
2018,07,25,14,01,25.90
2018,07,25,14,02,25.90
2018,07,25,14,03,25.90
2018,07,25,14,04,25.90
2018,07,25,14,05,25.90
2018,07,25,14,06,25.90
2018,07,25,14,07,25.80
2018,07,25,14,08,25.80
2018,07,25,14,09,25.90
2018,07,25,14,10,25.90
2018,07,25,14,11,26.00
2018,07,25,14,12,26.10
2018,07,25,14,13,26.20
2018,07,25,14,14,26.30
2018,07,25,14,15,26.40
2018,07,25,14,16,26.50
2018,07,25,14,17,26.60
2018,07,25,14,18,26.70
2018,07,25,14,19,26.70
2018,07,25,14,20,26.70
2018,07,25,14,21,26.70
2018,07,25,14,22,26.70
2018,07,25,14,23,26.70
2018,07,25,14,24,26.60
2018,07,25,14,25,26.60
2018,07,25,14,26,26.40
2018,07,25,14,27,26.40
2018,07,25,14,28,26.40
2018,07,25,14,29,26.40
2018,07,25,14,30,26.40
2018,07,25,14,31,26.50
2018,07,25,14,32,26.50
2018,07,25,14,33,26.50
2018,07,25,14,34,26.50
2018,07,25,14,35,26.50
2018,07,25,14,36,26.50
2018,07,25,14,37,26.50
2018,07,25,14,38,26.50
2018,07,25,14,39,26.40
2018,07,25,14,40,26.40
2018,07,25,14,41,26.40
2018,07,25,14,42,26.40
2018,07,25,14,43,26.50
2018,07,25,14,44,26.50
2018,07,25,14,45,26.60
2018,07,25,14,46,26.60
2018,07,25,14,47,26.60
2018,07,25,14,48,26.70
2018,07,25,14,49,26.70
2018,07,25,14,50,26.80
2018,07,25,14,51,26.80
2018,07,25,14,52,26.80
2018,07,25,14,53,26.80
2018,07,25,14,54,26.80
2018,07,25,14,55,26.80
2018,07,25,14,56,26.80
2018,07,25,14,57,26.80
2018,07,25,14,58,26.80
2018,07,25,14,59,26.80
2018,07,25,15,00,26.90
2018,07,25,15,01,26.90
2018,07,25,15,02,26.90
2018,07,25,15,03,26.80
2018,07,25,15,04,26.90
2018,07,25,15,05,26.90
2018,07,25,15,06,26.90
2018,07,25,15,07,26.90
2018,07,25,15,08,27.00
2018,07,25,15,09,27.10
2018,07,25,15,10,27.10
2018,07,25,15,11,27.20
2018,07,25,15,12,27.20
2018,07,25,15,13,27.20
2018,07,25,15,14,27.20
2018,07,25,15,15,27.20
2018,07,25,15,16,27.20
2018,07,25,15,17,27.20
2018,07,25,15,18,27.30
2018,07,25,15,19,27.30
2018,07,25,15,20,27.30
2018,07,25,15,21,27.30
2018,07,25,15,22,27.40
2018,07,25,15,23,27.50
2018,07,25,15,24,27.60
2018,07,25,15,25,27.70
2018,07,25,15,26,27.80
2018,07,25,15,27,27.90
2018,07,25,15,28,28.00
2018,07,25,15,29,28.10
2018,07,25,15,30,28.20
2018,07,25,15,31,28.30
2018,07,25,15,32,28.40
2018,07,25,15,33,28.50
2018,07,25,15,34,28.60
2018,07,25,15,35,28.60
2018,07,25,15,36,28.50
2018,07,25,15,37,28.40
2018,07,25,15,38,28.50
2018,07,25,15,39,28.50
2018,07,25,15,40,28.50
2018,07,25,15,41,28.60
2018,07,25,15,42,28.60
2018,07,25,15,43,28.60
2018,07,25,15,44,28.60
2018,07,25,15,45,28.70
2018,07,25,15,46,28.70
2018,07,25,15,47,28.70
2018,07,25,15,48,28.70
2018,07,25,15,49,28.80
2018,07,25,15,50,28.80
2018,07,25,15,51,28.80
2018,07,25,15,52,28.80
2018,07,25,15,53,28.80
2018,07,25,15,54,28.80
2018,07,25,15,55,28.80
2018,07,25,15,56,28.80
2018,07,25,15,57,28.90
2018,07,25,15,58,28.90
2018,07,25,15,59,28.90
2018,07,25,16,00,28.90
2018,07,25,16,01,28.90
2018,07,25,16,02,28.90
2018,07,25,16,03,28.90
2018,07,25,16,04,28.90
2018,07,25,16,05,28.90
2018,07,25,16,06,28.90
2018,07,25,16,07,28.90
2018,07,25,16,08,28.90
2018,07,25,16,09,28.80
2018,07,25,16,10,28.80
2018,07,25,16,11,28.70
2018,07,25,16,12,28.70
2018,07,25,16,13,28.70
2018,07,25,16,14,28.70
2018,07,25,16,15,28.60
2018,07,25,16,16,28.60
2018,07,25,16,17,28.60
2018,07,25,16,18,28.70
2018,07,25,16,19,28.70
2018,07,25,16,20,28.80
2018,07,25,16,21,28.80
2018,07,25,16,22,28.80
2018,07,25,16,23,28.90
2018,07,25,16,24,28.90
2018,07,25,16,25,28.90
2018,07,25,16,26,28.90
2018,07,25,16,27,29.00
2018,07,25,16,28,29.00
2018,07,25,16,29,29.10
2018,07,25,16,30,29.20
2018,07,25,16,31,29.20
2018,07,25,16,32,29.20
2018,07,25,16,33,29.20
2018,07,25,16,34,29.20
2018,07,25,16,35,29.20
2018,07,25,16,36,29.20
2018,07,25,16,37,29.20
2018,07,25,16,38,29.20
2018,07,25,16,39,29.20
2018,07,25,16,40,29.20
2018,07,25,16,41,29.20
2018,07,25,16,42,29.20
2018,07,25,16,43,29.20
2018,07,25,16,44,29.20
2018,07,25,16,45,29.20
2018,07,25,16,46,29.20
2018,07,25,16,47,29.20
2018,07,25,16,48,29.20
2018,07,25,16,49,29.20
2018,07,25,16,50,29.10
2018,07,25,16,51,29.10
2018,07,25,16,52,29.10
2018,07,25,16,53,29.00
2018,07,25,16,54,29.00
2018,07,25,16,55,28.90
2018,07,25,16,56,28.90
2018,07,25,16,57,28.90
2018,07,25,16,58,28.90
2018,07,25,16,59,28.90
2018,07,25,17,00,28.80
2018,07,25,17,01,28.80
2018,07,25,17,02,28.80
2018,07,25,17,03,28.80
2018,07,25,17,04,28.80
2018,07,25,17,05,28.80
2018,07,25,17,06,28.80
2018,07,25,17,07,28.90
2018,07,25,17,08,28.90
2018,07,25,17,09,28.90
2018,07,25,17,10,28.90
2018,07,25,17,11,28.90
2018,07,25,17,12,28.90
2018,07,25,17,13,28.90
2018,07,25,17,14,28.90
2018,07,25,17,15,28.80
2018,07,25,17,16,28.80
2018,07,25,17,17,28.80
2018,07,25,17,18,28.80
2018,07,25,17,19,28.80
2018,07,25,17,20,28.80
2018,07,25,17,21,28.80
2018,07,25,17,22,28.90